Карточка аэропорта USPP

Внимание!
Информация на этой странице в стадии наполнения.
Если вы не увидели какой-то информации, или заметили неточность - пожалуйста сообщите нам!
Спасибо!
Команда RU-STAFF
Название аэропортаБольшое Савино
Название аэропорта (англ.)Bolshoe Savino
Превышение404 ft. (123.1 m.)
Координаты57°55.866', 56°1.6019999999999'
Высота перехода3700ft
Эшелон переходаQNH>1013:FL50; 1013>QNH>977:FL60; 977>QNH:FL70;
Коды ответчика5610-5617
Зона ОрВДЕкатеринбург РПИ (USSV)
Данные METARUSPP 171830Z 21003MPS CAVOK 16/11 Q1021 R03/090060 NOSIG RMK QFE755
Проноз погоды (TAF)USPP 171656Z 1718/1818 08003G10MPS 6000 SCT016 BECMG 1802/1803 CAVOK BECMG 1808/1809 12003G12MPS
NOTAMshow/hide NOTAM
AWOS   TABLE

Информация о ВПП

ВПП Длина ВПП (м.) Покрытие Курс ВПП Частота ILS
033204Железобетон31 
213204Железобетон211109.9

Диспетчерские позиции

Позывной Наименование органа УВД Частота
USPP_APPПермь-Подход127.100
USPP_TWRПермь-Старт124.000
USPP_R_APPПермь-Круг121.700



Спутниковое изображение